Regional Weather Roundup
Issued by NWS

Home | Current Version | Previous Version | Graphics & Text | Print | Product List | Glossary On
Versions: 1 2 3 4 5 6 7 8 9 10 11 12 13 14 15 16 17 18 19 20 21 22 23 24 25 26 27 28 29 30 31 32 33 34 35 36 37 38 39 40 41 42 43 44 45 46 47 48 49 50
000
ASUS43 KTOP 202159
RWRKS

WEATHER ROUNDUP FOR KANSAS
NATIONAL WEATHER SERVICE GOODLAND KS
500 PM CDT MON APR 20 2015

NOTE:  "FAIR" INDICATES FEW OR NO CLOUDS BELOW 12,000 FEET WITH NO
SIGNIFICANT WEATHER AND/OR OBSTRUCTIONS TO VISIBILITY.

KSZ001>006-013>018-027>032-041>047-202300-
NORTHWEST KANSAS

CITY           SKY/WX    TMP DP  RH WIND       PRES   REMARKS
GOODLAND       CLOUDY    56  30  37 N12       29.89F
HAYS           CLOUDY    63  25  23 W21       29.89F
HILL CITY      PTSUNNY   60  27  28 W20       29.89F
RUSSELL        PTSUNNY   63  26  24 NW20G28   29.88F
$$

KSZ061>065-074>080-084>089-202300-
SOUTHWEST KANSAS

CITY           SKY/WX    TMP DP  RH WIND       PRES   REMARKS
DODGE CITY     MOSUNNY   61  26  26 W14       29.93F
ELKHART          N/A     63  31  30 SE8         N/A
GARDEN CITY    MOSUNNY   59  26  28 W17G23    29.91F
GREAT BEND     PTSUNNY   61  30  31 NW13      29.90F
LIBERAL        SUNNY     61  28  29 CALM      29.94F
$$

KSZ066>073-081>083-090>101-202300-
SOUTHEAST KANSAS

CITY           SKY/WX    TMP DP  RH WIND       PRES   REMARKS
CHANUTE        PTSUNNY   60  30  32 NW16G25   29.90F
COFFEYVILLE    MOSUNNY   62  34  35 NW16G26   29.91F
HUTCHINSON     MOSUNNY   62  28  27 NW17G23   29.89F
MEDICINE LODGE   N/A     62  29  28 SW6       29.92F
NEWTON         MOSUNNY   59  28  31 NW17G24   29.91F
PARSONS        PTSUNNY   62  35  36 NW15      29.92F
WICHITA INTL   MOSUNNY   63  30  28 NW16G26   29.91F
WICHITA JABRA  MOSUNNY   62  31  31 W15       29.90F
WINFIELD       MOSUNNY   63  35  35 W12       29.93F
$$

KSZ007>012-019>026-033>040-048>060-102>105-202300-
NORTHEAST KANSAS

CITY           SKY/WX    TMP DP  RH WIND       PRES   REMARKS
CONCORDIA      PTSUNNY   59  24  26 NW18G24   29.86F
EMPORIA        MOSUNNY   58  26  29 NW14G25   29.88F
LAWRENCE       PTSUNNY   59  26  28 NW20G30   29.85F
MANHATTAN      MOSUNNY   61  24  24 W12G23    29.86F
OLATHE IND     MOSUNNY   58  24  27 NW21G30   29.86S
OLATHE EXE     MOSUNNY   57  21  24 NW20G30   29.84S
SALINA         CLOUDY    63  28  26 NW21G26   29.88F
TOPEKA BILLARD PTSUNNY   59  25  27 W15G24    29.85F
TOPEKA FORBES  PTSUNNY   60  27  28 NW23G29   29.85F
$$


USA.gov is the U.S. government's official web portal to all federal, state and local government web resources and services.